FW9036 Weather Reports


time (UTC)temp
C
wind
direction
speed
KPH
gust
KPH
rain 1hr
cm
rain 24hr
cm
rain mn
cm
humidity
%
barometer
mb
20260510031024 21 172 0.0 0.0 0.00 0.89 0.89 94 1016.6
20260510030520 21 172 0.0 0.0 0.00 0.89 0.89 94 1016.3
20260510030017 21 172 0.0 0.0 0.00 0.89 0.89 94 1016.2
20260510025514 21 172 0.0 0.0 0.00 0.89 0.89 94 1016.4
20260510025012 21 172 0.0 0.0 0.00 0.89 0.89 94 1016.4
20260510024508 21 180 0.0 0.0 0.00 0.89 0.89 94 1016.2
20260510024004 22 90 0.0 3.2 0.00 0.89 0.89 94 1015.7
20260510023500 21 90 0.0 0.0 0.00 0.89 0.89 94 1015.8
20260510022957 21 90 0.0 0.0 0.05 0.89 0.89 94 1015.8
20260510022457 21 90 0.0 0.0 0.05 0.89 0.89 94 1015.7
20260510021956 21 90 0.0 0.0 0.00 0.89 0.89 94 1015.5
20260510021454 22 90 0.0 0.0 0.00 0.89 0.89 94 1015.5
20260510020951 21 90 0.0 0.0 0.00 0.89 0.89 94 1015.6
20260510020450 22 90 0.0 0.0 0.00 0.89 0.89 94 1015.6
20260510015946 22 90 0.0 0.0 0.00 0.89 0.89 94 1015.2
20260510015443 21 90 0.0 0.0 0.00 0.89 0.89 94 1015.0
20260510014938 22 90 0.0 0.0 0.00 0.89 0.89 94 1015.0
20260510014436 21 90 0.0 0.0 0.00 0.89 0.89 94 1014.9
20260510013932 22 90 0.0 0.0 0.00 0.89 0.89 94 1014.9
20260510013427 21 90 0.0 0.0 0.00 0.89 0.89 94 1015.1
20260510012923 22 90 0.0 1.6 0.00 0.89 0.89 94 1015.2
20260510012418 22 187 0.0 1.6 0.00 0.89 0.89 93 1015.0
20260510011913 22 180 0.0 0.0 0.00 0.89 0.89 93 1014.9
20260510011408 22 90 0.0 0.0 0.00 0.89 0.89 93 1014.7
20260510010904 22 90 0.0 0.0 0.00 0.89 0.89 93 1014.8
20260510010402 22 90 0.0 0.0 0.00 0.89 0.89 93 1014.9
20260510005858 21 90 0.0 0.0 0.00 0.89 0.89 93 1014.8
20260510005354 22 90 0.0 0.0 0.00 0.89 0.89 93 1014.8
20260510004852 22 99 0.0 3.2 0.00 0.89 0.89 93 1014.8
20260510004349 22 172 0.0 0.0 0.00 0.89 0.89 93 1014.8
20260510003847 22 172 0.0 0.0 0.00 0.89 0.89 93 1014.8
20260510003344 22 81 0.0 0.0 0.00 0.89 0.89 93 1015.0
20260510002842 22 81 0.0 0.0 0.00 0.89 0.89 93 1014.8
20260510002340 22 81 0.0 0.0 0.00 0.89 0.89 93 1015.0
20260510001837 22 74 1.6 3.2 0.00 0.89 0.89 93 1014.9
20260510001335 22 172 0.0 0.0 0.00 0.89 0.89 93 1015.1
20260510000830 22 172 0.0 0.0 0.00 0.89 0.89 93 1015.0
20260510000328 22 172 0.0 0.0 0.00 0.89 0.89 93 1015.1
20260509235825 22 172 0.0 0.0 0.05 0.89 0.89 93 1015.1
20260509235321 22 172 0.0 0.0 0.05 0.89 0.89 93 1015.0
20260509234817 22 172 0.0 0.0 0.05 0.86 0.86 93 1015.0
20260509234314 22 172 0.0 0.0 0.05 0.86 0.86 93 1015.1
20260509233812 22 172 0.0 0.0 0.00 0.86 0.86 93 1015.1
20260509233309 22 160 1.6 1.6 0.00 0.86 0.86 93 1015.1
20260509232805 22 82 0.0 0.0 0.00 0.86 0.86 93 1014.9
20260509232306 22 82 0.0 0.0 0.00 0.86 0.86 93 1015.1
20260509231759 22 82 0.0 0.0 0.00 0.86 0.86 93 1015.1
20260509231256 22 82 0.0 0.0 0.00 0.86 0.86 93 1014.9
20260509230754 22 82 0.0 0.0 0.00 0.86 0.86 92 1015.1
20260509230250 22 82 0.0 0.0 0.00 0.86 0.86 92 1014.7
20260509225745 22 82 0.0 1.6 0.00 0.86 0.86 92 1014.9
20260509225242 22 81 0.0 0.0 0.00 0.86 0.86 92 1014.7
20260509224737 22 90 0.0 0.0 0.05 0.86 0.86 92 1014.8
20260509224235 22 99 0.0 0.0 0.05 0.86 0.86 92 1014.8
20260509223732 22 220 0.0 3.2 0.05 0.86 0.86 92 1015.0
20260509223229 22 98 0.0 1.6 0.05 0.86 0.86 92 1015.0
20260509222726 22 84 1.6 4.8 0.00 0.84 0.84 92 1014.9
20260509222221 22 82 1.6 1.6 0.00 0.84 0.84 92 1015.2
20260509221717 22 81 0.0 1.6 0.00 0.84 0.84 92 1014.9
20260509221213 22 106 0.0 3.2 0.00 0.84 0.84 92 1015.0
20260509220709 22 106 1.6 1.6 0.00 0.84 0.84 92 1014.8
20260509220206 22 75 0.0 3.2 0.00 0.84 0.84 92 1014.8
20260509215701 22 81 0.0 1.6 0.00 0.84 0.84 92 1015.1
20260509215158 21 82 1.6 3.2 0.00 0.84 0.84 92 1014.8
20260509214655 21 348 0.0 1.6 0.00 0.84 0.84 92 1014.7
20260509214152 21 78 3.2 8.0 0.00 0.84 0.84 92 1014.5
20260509213649 22 74 1.6 3.2 0.00 0.84 0.84 92 1014.6
20260509213145 22 90 1.6 4.8 0.00 0.84 0.84 92 1014.6
20260509212642 22 131 3.2 3.2 0.00 0.84 0.84 92 1014.7
20260509212139 22 70 3.2 4.8 0.00 0.84 0.84 92 1014.6
20260509211635 22 48 3.2 8.0 0.00 0.84 0.84 92 1014.8
20260509211132 22 16 0.0 4.8 0.13 0.84 0.84 91 1014.5
20260509210629 21 84 1.6 6.4 0.05 0.84 0.84 91 1014.6
20260509210126 21 14 3.2 8.0 0.00 0.81 0.81 91 1014.5
20260509205620 22 84 8.0 9.7 0.00 0.81 0.81 91 1014.7
20260509205115 22 33 3.2 6.4 0.00 0.81 0.81 91 1014.7
20260509204612 22 82 0.0 4.8 0.00 0.81 0.81 91 1014.7
20260509204108 22 314 6.4 9.7 0.18 0.81 0.81 90 1014.6
20260509203604 23 42 8.0 8.0 0.13 0.81 0.81 90 1014.5
20260509203103 23 0 0.0 4.8 0.00 0.79 0.79 90 1014.4
20260509202556 23 11 3.2 4.8 0.00 0.79 0.79 90 1014.5
20260509202053 23 343 6.4 8.0 0.00 0.79 0.79 90 1014.6
20260509201547 23 0 0.0 1.6 0.05 0.79 0.79 90 1014.5
20260509201046 23 32 0.0 3.2 0.18 0.79 0.79 90 1014.3
20260509200545 23 14 0.0 0.0 0.30 0.79 0.79 89 1014.5
20260509200042 24 186 0.0 3.2 0.18 0.76 0.76 89 1014.4
20260509195537 23 15 0.0 1.6 0.00 0.74 0.74 89 1014.5
20260509195032 24 90 0.0 1.6 0.05 0.74 0.74 89 1014.3
20260509194527 24 106 0.0 0.0 0.00 0.71 0.71 88 1014.6
20260509194025 24 99 0.0 1.6 0.00 0.71 0.71 88 1014.7
20260509193525 24 114 0.0 0.0 0.05 0.71 0.71 88 1014.5
20260509193022 24 114 0.0 1.6 0.13 0.71 0.71 87 1014.1
20260509192518 25 127 3.2 3.2 0.18 0.71 0.71 86 1014.1
20260509192013 25 0 0.0 6.4 0.30 0.71 0.71 84 1014.3
20260509191508 25 49 0.0 4.8 0.36 0.66 0.66 83 1014.3
20260509191004 26 81 3.2 3.2 0.18 0.64 0.64 81 1014.3
20260509190501 26 82 0.0 1.6 0.00 0.61 0.61 79 1014.5
20260509185959 26 99 0.0 3.2 0.00 0.61 0.61 78 1014.3
20260509185456 26 90 0.0 3.2 0.00 0.61 0.61 77 1014.2
20260509184952 26 120 3.2 3.2 0.00 0.61 0.61 77 1014.3
20260509184451 26 74 3.2 3.2 0.00 0.61 0.61 76 1014.4
20260509183946 26 145 0.0 3.2 0.00 0.61 0.61 76 1014.3
20260509183441 26 140 3.2 3.2 0.00 0.61 0.61 75 1014.3
20260509182938 26 98 1.6 4.8 0.00 0.61 0.61 75 1014.6
20260509182434 27 35 1.6 4.8 0.00 0.61 0.61 74 1014.4
20260509181931 27 60 3.2 4.8 0.00 0.61 0.61 74 1014.4
20260509181430 27 115 3.2 6.4 0.00 0.61 0.61 73 1014.6
20260509180926 28 331 0.0 4.8 0.00 0.61 0.61 72 1014.4
20260509180422 28 45 4.8 6.4 0.00 0.61 0.61 73 1014.5
20260509175919 27 83 1.6 6.4 0.00 0.61 0.61 74 1014.4
20260509175415 27 102 4.8 9.7 0.00 0.61 0.61 75 1014.7
20260509174912 27 165 0.0 8.0 0.00 0.61 0.61 75 1014.8
20260509174408 27 82 3.2 6.4 0.00 0.61 0.61 75 1015.1
20260509173904 27 143 3.2 6.4 0.00 0.61 0.61 76 1014.8
20260509173403 26 126 0.0 4.8 0.00 0.61 0.61 77 1015.2
20260509172900 26 99 3.2 11.3 0.00 0.61 0.61 77 1015.2
20260509172357 26 132 6.4 8.0 0.00 0.61 0.61 76 1015.0
20260509171853 26 14 0.0 3.2 0.00 0.61 0.61 77 1015.1
20260509171349 26 180 0.0 4.8 0.00 0.61 0.61 77 1014.9
20260509170846 26 69 4.8 4.8 0.00 0.61 0.61 77 1015.1
20260509170341 26 166 1.6 4.8 0.00 0.61 0.61 77 1015.0
20260509165836 26 68 3.2 6.4 0.00 0.61 0.61 77 1015.0
20260509165331 26 106 1.6 4.8 0.00 0.61 0.61 77 1015.2
20260509164827 26 29 1.6 4.8 0.00 0.61 0.61 78 1015.2
20260509164323 25 270 4.8 4.8 0.00 0.61 0.61 78 1015.1
20260509163820 25 80 3.2 4.8 0.00 0.61 0.61 78 1015.0
20260509163316 25 117 3.2 3.2 0.00 0.61 0.61 79 1015.1
20260509162816 25 194 0.0 4.8 0.00 0.61 0.61 79 1015.3
20260509162309 25 154 1.6 4.8 0.00 0.61 0.61 80 1015.2
20260509161805 25 157 0.0 4.8 0.00 0.61 0.61 80 1015.5
20260509161301 25 138 4.8 4.8 0.00 0.61 0.61 80 1015.5
20260509160757 25 127 0.0 3.2 0.00 0.61 0.61 81 1015.4
20260509160253 24 221 0.0 3.2 0.00 0.61 0.61 81 1015.5
20260509155748 24 190 4.8 4.8 0.00 0.61 0.61 82 1015.4
20260509155245 23 140 3.2 3.2 0.00 0.61 0.61 82 1015.3
20260509154741 23 172 0.0 4.8 0.00 0.61 0.61 82 1014.9
20260509154239 23 152 4.8 4.8 0.00 0.61 0.61 82 1015.3
20260509153736 23 74 1.6 4.8 0.00 0.61 0.61 82 1015.3
20260509153231 23 66 3.2 3.2 0.00 0.61 0.61 82 1015.5
20260509152728 23 59 4.8 4.8 0.00 0.61 0.61 81 1015.1
20260509152225 23 40 4.8 4.8 0.00 0.61 0.61 81 1015.6
20260509151722 23 17 3.2 4.8 0.00 0.61 0.61 81 1015.8
20260509151218 23 101 0.0 3.2 0.00 0.61 0.61 82 1015.7
20260509150716 23 29 3.2 4.8 0.00 0.61 0.61 81 1016.0
20260509150214 23 66 3.2 4.8 0.00 0.61 0.61 81 1016.0
20260509145710 23 72 4.8 8.0 0.00 0.61 0.61 81 1015.7
20260509145206 23 90 4.8 8.0 0.00 0.61 0.61 81 1015.9
20260509144702 23 69 4.8 4.8 0.00 0.61 0.61 81 1015.9
20260509144200 23 325 0.0 4.8 0.00 0.61 0.61 81 1015.8
20260509143657 23 286 0.0 0.0 0.00 0.61 0.61 82 1015.8
20260509143154 23 74 1.6 3.2 0.00 0.61 0.61 82 1016.1
20260509142649 22 337 0.0 3.2 0.00 0.61 0.61 82 1015.8
20260509142146 22 40 0.0 3.2 0.00 0.61 0.61 83 1015.8
20260509141642 22 66 0.0 4.8 0.00 0.61 0.61 83 1015.9
20260509141138 23 84 1.6 3.2 0.00 0.61 0.61 83 1015.8
20260509140636 22 304 0.0 3.2 0.00 0.61 0.61 83 1015.7
20260509140134 22 291 0.0 3.2 0.00 0.61 0.61 84 1015.5
20260509135630 22 342 0.0 3.2 0.00 0.61 0.61 84 1015.6
20260509135129 22 0 0.0 3.2 0.00 0.61 0.61 85 1015.9
20260509134625 22 7 1.6 3.2 0.00 0.61 0.61 85 1015.9
20260509134122 21 237 3.2 4.8 0.00 0.61 0.61 86 1015.9
20260509133620 21 4 0.0 3.2 0.00 0.61 0.61 86 1015.7
20260509133117 21 0 0.0 3.2 0.00 0.61 0.61 86 1015.5
20260509132615 21 0 0.0 0.0 0.00 0.61 0.61 87 1015.4
20260509132113 21 286 1.6 3.2 0.00 0.61 0.61 87 1015.4
20260509131609 21 312 3.2 6.4 0.00 0.61 0.61 87 1015.3
20260509131106 21 353 1.6 4.8 0.00 0.61 0.61 87 1015.5
20260509130601 21 0 0.0 6.4 0.00 0.61 0.61 88 1015.4
20260509130058 22 0 0.0 3.2 0.00 0.61 0.61 88 1015.3
20260509125555 22 66 0.0 1.6 0.00 0.61 0.61 88 1015.2
20260509125051 22 90 0.0 0.0 0.00 0.61 0.61 89 1015.2
20260509124548 21 90 0.0 0.0 0.00 0.61 0.61 89 1014.9
20260509124045 21 90 0.0 0.0 0.00 0.61 0.61 90 1014.9
20260509123543 22 74 0.0 0.0 0.00 0.61 0.61 90 1015.0
20260509123039 21 74 0.0 0.0 0.00 0.61 0.61 90 1014.9
20260509122536 21 90 0.0 3.2 0.00 0.61 0.61 91 1015.0
20260509122033 21 81 0.0 0.0 0.00 0.61 0.61 91 1014.9
20260509121529 21 97 0.0 0.0 0.00 0.61 0.61 91 1014.8
20260509121027 21 97 1.6 1.6 0.00 0.61 0.61 91 1014.8
20260509120525 21 40 0.0 0.0 0.00 0.61 0.61 91 1015.0
20260509120023 21 52 3.2 3.2 0.00 0.61 0.61 91 1015.2
20260509115519 20 32 0.0 3.2 0.00 0.61 0.61 92 1015.0
20260509115018 20 270 0.0 0.0 0.00 0.61 0.61 92 1015.0
20260509114515 20 270 0.0 0.0 0.00 0.61 0.61 92 1015.0
20260509114014 20 352 0.0 3.2 0.00 0.61 0.61 92 1014.9
20260509113512 20 90 0.0 1.6 0.00 0.61 0.61 92 1014.1
20260509113010 20 120 0.0 0.0 0.00 0.61 0.61 92 1014.6
20260509112506 20 81 0.0 0.0 0.00 0.61 0.61 92 1014.3
20260509112002 20 84 0.0 0.0 0.00 0.61 0.61 92 1014.4
20260509111500 20 48 0.0 3.2 0.00 0.61 0.61 92 1014.2
20260509110957 20 60 0.0 3.2 0.00 0.61 0.61 92 1014.2
20260509110453 20 60 0.0 3.2 0.00 0.61 0.61 92 1013.8
20260509105951 20 286 3.2 3.2 0.00 0.61 0.61 92 1013.8
20260509105449 20 194 3.2 6.4 0.00 0.61 0.61 93 1013.4
20260509104946 19 82 1.6 4.8 0.00 0.61 0.61 93 1013.3
20260509104443 19 100 3.2 8.0 0.00 0.61 0.61 93 1012.9
20260509103940 19 104 4.8 9.7 0.00 0.61 0.61 93 1012.6
20260509103438 19 90 3.2 4.8 0.00 0.61 0.61 94 1012.9
20260509102936 19 119 6.4 8.0 0.00 0.61 0.61 94 1012.9
20260509102433 19 101 4.8 6.4 0.00 0.61 0.61 94 1013.0
20260509101928 18 126 1.6 9.7 0.00 0.61 0.61 94 1012.7
20260509101425 19 104 8.0 8.0 0.00 0.61 0.61 94 1012.9
20260509100923 18 106 6.4 6.4 0.00 0.61 0.61 94 1012.9
20260509100420 19 106 0.0 8.0 0.00 0.61 0.61 94 1013.0
20260509095916 18 187 1.6 6.4 0.00 0.61 0.61 94 1012.9
20260509095414 18 125 4.8 8.0 0.00 0.61 0.61 94 1013.0
20260509094910 18 110 6.4 9.7 0.00 0.61 0.61 94 1013.2
20260509094407 18 144 4.8 6.4 0.00 0.61 0.61 94 1013.3
20260509093905 18 98 4.8 4.8 0.00 0.61 0.61 94 1013.5
20260509093402 18 108 3.2 6.4 0.00 0.61 0.61 94 1013.8
20260509092900 18 117 0.0 3.2 0.00 0.61 0.61 94 1014.1
20260509092357 18 23 0.0 0.0 0.00 0.61 0.61 94 1014.3
20260509091856 18 15 0.0 1.6 0.00 0.61 0.61 94 1014.2
20260509091352 18 286 0.0 1.6 0.00 0.61 0.61 94 1014.3
20260509090850 18 165 0.0 0.0 0.00 0.61 0.61 94 1014.1
20260509090347 18 165 0.0 1.6 0.00 0.61 0.61 94 1014.0
20260509085844 18 99 0.0 4.8 0.00 0.61 0.61 94 1014.0
20260509085341 18 126 0.0 3.2 0.00 0.61 0.61 94 1014.1
20260509084838 18 99 0.0 3.2 0.00 0.61 0.61 94 1014.0
20260509084335 18 106 0.0 3.2 0.00 0.61 0.61 94 1014.0
20260509083833 18 106 3.2 3.2 0.00 0.61 0.61 94 1014.0
20260509083329 18 113 0.0 3.2 0.00 0.61 0.61 94 1013.9
20260509082826 18 120 3.2 6.4 0.00 0.61 0.61 94 1014.0
20260509082322 18 120 0.0 6.4 0.00 0.61 0.61 94 1013.9
20260509081820 18 148 0.0 4.8 0.00 0.61 0.61 94 1014.0
20260509081316 18 120 3.2 6.4 0.00 0.61 0.61 94 1014.1
20260509080815 18 124 4.8 6.4 0.00 0.61 0.61 94 1014.0
20260509080312 18 109 1.6 4.8 0.00 0.61 0.61 94 1013.9
20260509075810 18 170 3.2 4.8 0.00 0.61 0.61 94 1014.0
20260509075307 18 106 0.0 4.8 0.00 0.61 0.61 94 1014.0
20260509074804 19 154 0.0 4.8 0.00 0.61 0.61 94 1014.2
20260509074302 18 105 0.0 4.8 0.00 0.61 0.61 94 1014.2
20260509073758 18 117 1.6 4.8 0.00 0.61 0.61 94 1014.3
20260509073254 19 139 3.2 6.4 0.00 0.61 0.61 94 1014.3
20260509072751 19 126 0.0 4.8 0.00 0.61 0.61 94 1014.2
20260509072248 18 123 6.4 6.4 0.00 0.61 0.61 94 1014.2
20260509071744 19 154 1.6 4.8 0.00 0.61 0.61 94 1014.3
20260509071242 19 114 0.0 4.8 0.00 0.61 0.61 94 1014.6
20260509070738 19 145 0.0 0.0 0.00 0.61 0.61 94 1014.7
20260509070235 19 165 0.0 4.8 0.00 0.61 0.61 94 1014.8
20260509065731 19 105 1.6 3.2 0.00 0.61 0.61 94 1014.8
20260509065227 19 126 0.0 3.2 0.00 0.61 0.61 94 1015.1
20260509064724 19 131 0.0 3.2 0.00 0.61 0.61 94 1014.9
20260509064222 19 120 0.0 3.2 0.00 0.61 0.61 94 1015.1
20260509063719 19 154 0.0 1.6 0.00 0.61 0.61 94 1014.8
20260509063215 19 131 3.2 3.2 0.00 0.61 0.61 94 1015.0
20260509062713 19 140 0.0 0.0 0.00 0.61 0.61 94 1015.3
20260509062210 19 154 0.0 1.6 0.00 0.61 0.61 94 1015.2
20260509061707 19 165 0.0 3.2 0.00 0.61 0.61 94 1015.2
20260509061204 19 102 3.2 4.8 0.00 0.61 0.61 94 1015.1
20260509060701 19 103 1.6 3.2 0.00 0.61 0.61 93 1015.4
20260509060158 19 105 0.0 1.6 0.00 0.61 0.61 93 1015.4
20260509055654 19 106 0.0 0.0 0.05 0.61 0.61 93 1015.4
20260509055149 19 106 0.0 0.0 0.00 0.61 0.61 93 1015.4
20260509054646 19 194 0.0 0.0 0.00 0.61 0.61 93 1015.4
20260509054144 19 173 1.6 4.8 0.00 0.61 0.61 93 1015.5
20260509053642 19 145 0.0 4.8 0.00 0.61 0.61 93 1015.7
20260509053138 19 101 3.2 6.4 0.00 0.61 0.61 93 1015.6
20260509052636 19 106 0.0 4.8 0.00 0.61 0.61 93 1015.7
20260509052134 20 173 1.6 3.2 0.00 0.61 0.61 93 1015.8
20260509051631 20 124 3.2 3.2 0.00 0.61 0.61 93 1015.8
20260509051128 20 112 3.2 3.2 0.13 0.61 0.61 93 1016.1
20260509050626 20 102 3.2 3.2 0.30 0.61 0.61 93 1016.3
20260509050122 20 106 1.6 3.2 0.43 0.58 0.58 93 1016.6
20260509045620 20 97 4.8 4.8 0.18 0.53 0.53 92 1016.7
20260509045116 20 120 1.6 4.8 0.13 0.51 0.51 92 1017.1
20260509044613 20 353 0.0 0.0 0.13 0.51 0.51 92 1017.5
20260509044111 20 165 0.0 1.6 0.05 0.48 0.48 92 1017.6
20260509043607 20 114 0.0 3.2 0.00 0.48 0.48 92 1017.4
20260509043102 20 114 1.6 1.6 0.05 0.48 0.48 92 1017.2
20260509042559 20 102 3.2 4.8 0.18 0.48 0.48 92 1017.2
20260509042055 20 126 1.6 3.2 0.84 0.46 0.46 91 1017.4
20260509041552 20 83 0.0 1.6 2.34 0.43 0.43 91 1017.5
20260509041050 20 65 3.2 4.8 1.19 0.20 0.20 91 1017.8
20260509040548 20 180 0.0 1.6 0.43 0.05 0.05 90 1018.3
20260509040044 20 99 0.0 1.6 0.18 0.23 0.23 90 1017.7
20260509035541 20 157 1.6 1.6 0.13 0.20 0.20 90 1017.9
20260509035038 20 90 0.0 1.6 0.43 0.20 0.20 90 1017.5
20260509034536 20 69 1.6 3.2 0.97 0.18 0.18 90 1017.6
20260509034033 20 96 1.6 3.2 0.53 0.10 0.10 89 1017.5
20260509033530 20 103 1.6 3.2 0.00 0.03 0.03 89 1017.9
20260509033027 20 90 0.0 3.2 0.00 0.03 0.03 89 1017.4
20260509032524 20 81 0.0 6.4 0.00 0.03 0.03 89 1017.8
20260509032021 21 74 6.4 6.4 0.00 0.03 0.03 89 1017.5
20260509031519 21 14 0.0 6.4 0.00 0.03 0.03 88 1017.7